CAPE
1 3 0 7 10 13 4 9 12 14 10 15 0 8 7 8 9 13 20 0 0 1
3 0 0 5 9 10 11 16 6 8 8 10 1 0 24 3 2 3 1 15 16 2
0 0 3 8 8 0 0 0 4 11 20 10 9 17 14 14 17 16 16 18 15 30
0 1 0 0 0 1 0 0 0 0 2 17 3 3 19 20 3 3 9 14 11 17
1 0 2 0 4 3 4 0 0 1 2 7 0 0 0 1 19 13 11 41 18 16
0 8 6 5 6 10 9 2 0 0 0 0 0 0 0 0 7 41 2 8 13 32
1 1 5 5 7 11 4 7 0 0 0 0 0 0 0 0 21 13 4 20 17 32
1 1 3 0 12 5 11 7 0 0 0 0 0 0 0 0 0 30 14 17 10 5
2 1 0 3 3 7 2 6 1 0 1 5 0 0 0 0 0 13 24 8 0 1
5 0 0 0 0 1 12 6 0 0 4 7 0 0 0 0 0 8 30 23 19 1
0 0 0 0 0 0 6 2 0 0 4 2 0 0 0 0 0 9 1 1 6 14
0 0 0 0 0 0 0 0 0 0 0 0 0 0 0 0 0 0 0 0 33 13
0 0 0 0 0 0 0 2 0 0 0 0 0 0 0 0 0 0 0 0 28 0
0 0 0 0 1 0 0 0 0 0 1 15 7 27 0 0 0 0 0 0 16 22
CIN
-4 -11 -1 -6 -13 -6 -12 -10 -7 -3 -5 -1 -0 -5 -5 -2 -2 -2 -3 -0 -0 -7
-6 -0 -3 -6 -6 -3 -3 -5 -2 -2 -11 -4 -0 -3 -4 -5 -2 -2 -2 -2 -1 -3
-0 -0 -4 -2 -1 -0 -0 -0 -3 -2 -2 -2 -5 -1 -1 -2 -3 -2 -2 -2 -1 -2
-0 -0 -0 -0 -0 -1 -0 -0 -0 -0 -2 -1 -4 -2 -2 -2 -3 -2 -3 -2 -1 -9
-0 -0 -2 -0 -1 -1 -1 -0 -0 -1 -0 -2 -0 -0 -1 -3 -4 -2 -3 -3 -8 -15
-0 -2 -0 -2 -2 -1 -1 -4 -0 -0 -0 -0 -0 -0 -0 -0 -6 -1 -15 -21 -10 -3
-1 -1 -1 -1 -1 -3 -7 -2 -0 -0 -0 -0 -0 -0 -0 -0 -12 -5 -7 -2 -2 -10
-0 -1 -1 -0 -1 -2 -4 -6 -0 -0 -0 -0 -0 -0 -0 -0 -1 -8 -5 -4 -5 -5
-3 -0 -0 -0 -0 -1 -1 -1 -1 -0 -0 -3 -0 -0 -0 -0 -0 -11 -5 -3 -0 -3
-1 -1 -0 -0 -0 -1 -1 -1 -0 -0 -0 -7 -0 -0 -0 -0 -0 -17 -4 -3 -0 -3
-0 -0 -0 -0 -0 -0 -1 -1 -0 -0 -1 -0 -0 -0 -0 -0 -0 -4 -0 -4 -5 -8
-0 -0 -0 -0 -0 -0 -0 -0 -0 -0 -0 -0 -0 -0 -0 -0 -0 -0 -0 -0 -5 -14
-0 -0 -0 -0 -0 -0 -0 -2 -0 -0 -0 -0 -0 -0 -0 -0 -0 -0 -0 -2 -12 -0
-0 -0 -0 -0 -1 -0 -0 -0 -0 -0 -17 -31 -21 -26 -0 -0 -0 -0 -0 -0 -10 -15
Wind_Speed
27 26 26 26 25 25 24 24 23 23 23 23 23 22 24 25 26 27 25 28 29 30
24 24 24 24 22 23 24 21 22 21 22 23 24 24 24 26 27 28 28 28 28 30
20 20 20 21 24 24 24 21 21 20 20 22 24 25 26 25 26 27 28 29 30 28
19 21 21 22 22 21 23 25 22 22 21 24 25 26 27 28 29 29 29 30 31 31
19 19 20 20 19 20 21 24 24 24 23 25 27 29 29 30 31 30 29 31 31 32
17 18 19 18 19 18 19 22 23 17 22 24 28 30 30 29 27 29 31 32 33 32
17 17 17 17 16 15 18 18 22 20 23 24 27 29 29 25 24 28 31 29 29 30
15 15 17 17 15 16 15 17 21 21 23 24 27 28 28 26 26 25 27 27 28 30
12 14 16 15 15 17 17 18 20 21 21 22 25 26 27 27 26 25 26 25 26 28
12 15 16 15 17 18 17 19 20 20 20 21 23 26 28 28 27 24 25 28 25 27
13 14 15 15 18 18 19 19 19 18 19 21 20 23 26 27 26 27 30 29 27 25
13 13 15 17 17 18 17 19 16 16 17 16 18 18 21 25 28 28 30 29 25 23
12 13 15 16 17 18 19 16 18 17 15 15 13 13 16 21 25 27 31 30 26 22
11 13 14 15 16 17 17 17 16 15 14 12 12 14 13 17 21 23 29 31 27 27
Wind_Direction
19 22 24 25 25 18 15 17 18 7 352 4 358 339 12 6 2 1 11 6 352 354
30 33 35 38 40 32 11 16 354 348 348 5 5 352 5 18 12 8 360 5 6 359
42 46 47 51 49 48 21 338 336 334 330 348 10 8 8 15 20 15 13 7 2 8
41 46 50 55 57 61 52 24 347 344 335 359 15 15 6 9 8 7 7 7 3 3
46 54 55 59 61 61 55 35 9 10 353 9 1 359 3 2 3 7 10 7 8 5
47 49 49 54 51 60 54 42 39 70 44 33 22 11 2 9 18 16 13 9 7 9
41 49 52 58 69 74 56 59 43 53 40 34 22 18 18 26 25 20 14 16 15 16
39 54 51 54 71 63 73 56 43 43 34 30 23 23 24 25 22 21 22 22 20 16
43 33 32 49 58 52 52 45 35 35 31 30 26 25 23 22 20 21 19 18 17 15
24 8 15 28 23 25 35 30 28 33 33 32 30 25 20 18 19 17 14 12 12 11
7 2 4 10 7 14 15 20 24 35 32 29 33 28 26 23 19 17 12 10 10 9
3 5 1 360 6 10 19 21 28 33 31 31 28 30 28 23 21 17 12 8 9 10
14 10 6 7 6 7 8 19 20 22 27 24 23 26 21 20 17 13 11 8 11 14
26 12 12 9 7 7 10 12 14 16 16 14 9 3 8 13 11 12 9 9 9 6